カタログに戻る

COSMOS 2499 DEB

運用中PO
NORAD 49925·DEBRIS·🇷🇺 Russia

打ち上げ May 23, 2014 から Plesetsk Cosmodrome

Loading…

次のパス (今後24時間)

TLE

最新Source: Space-Track

元期: Sep 14, 2026, 10:49 UTC

1 49925U 14028G   26257.45132247  .00001886  00000-0  30564-2 0  9997
2 49925  82.4698 158.9235 0412734 356.2066   3.5952 13.18752025 29740

AllMySatでCOSMOS 2499 DEBをリアルタイム追跡

Download on the App Store